STARLINK-31721 (59536 NORAD) Tracking and Keplerian Element Data

This shows tracking and keplerian element data for the satellite.

Feedback or suggestion? Click here.




ElementValue
Catalog59536
NameSTARLINK-31721
Epoch Orbit897
Epoch Day159.93001642
Epoch Year2024
RAAN28.3802
Inclination43.0038
Eccentricity0.0001962
Argument of Perigee293.9333
Mean Anonmoly66.1318
Mean Motion15.40707797
Decay Rate9.89E-06
L11 59536U 24074C 24159.93001642 .00000989 00000+0 30928-4 0 9992
L22 59536 43.0038 28.3802 0001962 293.9333 66.1318 15.40707797 8977



Live tracking and technical data element details for STARLINK-31721 (NORAD 59536). STARLINK-31721 can be tracked NOW for your location showing map with azimuth and elevation plus other details from your city location.







IsCatalogInMostPopularTable: catalog: 59536, numindb: 11
Update: records affected: 1



GetName: 59536 STARLINK-31721

Hit Count: updated at: Fri, 14 Jun 2024 19:37:33 GMT